Regional Weather Roundup
Issued by NWS Sterling, VA

Home | Current Version | Previous Version | Text Only | Print | Product List | Glossary On
Versions: 1 2 3 4 5 6 7 8 9 10 11 12 13 14 15 16 17 18 19 20 21 22 23 24 25 26 27 28 29 30 31 32 33 34 35 36 37 38 39 40 41 42 43 44 45 46 47 48 49 50
000
ASUS41 KLWX 191210
RWRLWX

REGIONAL WEATHER ROUNDUP
NATIONAL WEATHER SERVICE BALTIMORE MD/WASHINGTON DC
800 AM EDT FRI SEP 19 2014

Note: "FAIR" indicates few or no clouds below 12,000 feet
with no significant weather and/or obstructions to visibility.
 TC=TEMPERATURE CELSIUS

 * =Non NWS site. Station does not report precipitation (e.g. rain,
    snow, etc.), thunder, or fog.

DCZ001-MDZ009-015-VAZ040>042-051-053>054-191300-
WASHINGTON METRO

CITY           SKY/WX    TMP DP  RH WIND       PRES   REMARKS
WASHINGTON NAT MOSUNNY   61  51  70 NE12      30.24R
DULLES         PTSUNNY   55  49  80 N7        30.24R
ANDREWS AFB    MOSUNNY   56  55  94 NE9       30.22R
QUANTICO       MOSUNNY   64  56  75 NE12      30.23R
COLLEGE PARK*  PTSUNNY   57  54  88 CALM      30.24R
LEESBURG*      MOSUNNY   55  54  94 NE8       30.26R
GAITHERSBURG*  PTSUNNY   54  48  82 NE3       30.28R

$$

MDZ006>007-011-014-191300-
BALTIMORE METRO

CITY           SKY/WX    TMP DP  RH WIND       PRES   REMARKS
BWI AIRPORT    MOSUNNY   58  50  75 NE9       30.24R
MD SCIENCE CTR   N/A     59  50  72 MISG      30.25R
MARTIN STATE   MOSUNNY   57  54  88 N7        30.26R
ANNAPOLIS      PTSUNNY   62  53  72 NE8       30.23R
FORT MEADE*    SUNNY     55  50  82 NE5       30.26R

$$

MDZ012-015-019>023-191300-
MARYLAND EASTERN SHORE

CITY           SKY/WX    TMP DP  RH WIND       PRES   REMARKS
OCEAN CITY     SUNNY     62  57  83 N3        30.19R
SALISBURY      SUNNY     62  57  83 CALM      30.20R HAZE
BAY BRIDGE AP*   N/A     59  52  77 N3        30.24R
CAMBRIDGE*     SUNNY     59  54  82 CALM      30.21R
EASTON*        MOSUNNY   57  57 100 NE7       30.26R

$$

MDZ017>025-191300-
SOUTHERN MARYLAND

CITY           SKY/WX    TMP DP  RH WIND       PRES   REMARKS
PATUXENT RIVER MOSUNNY   63  58  83 NE10      30.21R
ST INIGOES     MOSUNNY   63  59  87 NE3       30.20R
LEONARDTOWN*   PTSUNNY   61  59  94 CALM      30.22R

$$

MDZ003>005-191300-
NORTH CENTRAL MARYLAND

CITY           SKY/WX    TMP DP  RH WIND       PRES   REMARKS
FREDERICK*     MOSUNNY   57  54  88 NE7       30.29R
HAGERSTOWN APT SUNNY     53  49  86 N7        30.26R
WESTMINSTER*   SUNNY     52  48  87 CALM      30.27R

$$

MDZ501>502-191300-
WESTERN MARYLAND

CITY           SKY/WX    TMP DP  RH WIND       PRES   REMARKS
OAKLAND*       SUNNY     46  45  93 SE12      30.24R
CUMBERLAND*    MOSUNNY   52  50  93 CALM      30.30R

$$

VAZ025>031-191300-
SHENANDOAH VALLEY

CITY           SKY/WX    TMP DP  RH WIND       PRES   REMARKS
WINCHESTER*    CLOUDY    54  50  87 N3        30.25R
STAUNTON*      CLOUDY    60  50  69 CALM      30.24R

$$

WVZ021-048>050-054>055-191300-
EASTERN WEST VIRGINIA PANHANDLE

CITY           SKY/WX    TMP DP  RH WIND       PRES   REMARKS
MARTINSBURG    CLOUDY    55  48  77 N7        30.26R
PETERSBURG*    CLOUDY    53  51  92 CALM      30.26R

$$

VAZ036>039-050-191300-
CENTRAL FOOTHILLS

CITY           SKY/WX    TMP DP  RH WIND       PRES   REMARKS
CHARLOTTESVILL CLOUDY    61  56  83 NE7       30.21R
ORANGE*        PTSUNNY   59  55  88 N3        30.23R

$$

VAZ055>057-191300-
NORTH AND CENTRAL PIEDMONT

CITY           SKY/WX    TMP DP  RH WIND       PRES   REMARKS
FREDERICKSBRG* PTSUNNY   62  62 100 N3        30.21R FOG
STAFFORD*      PTSUNNY   57  57 100 CALM      30.26R FOG

$$

NCZ024-NYZ072-PAZ021-071-VAZ022-071-191300-
OTHER REGIONAL OBSERVATIONS

CITY           SKY/WX    TMP DP  RH WIND       PRES   REMARKS
NEW YORK CITY  SUNNY     54  37  52 NE10G17   30.32R
PHILADELPHIA   MOSUNNY   59  49  69 NE10      30.26R
PITTSBURGH     PTCLDY    49  48  97 CALM      30.23R
ROANOKE        CLOUDY    64  57  78 NE7       30.20R
RICHMOND       CLOUDY    64  59  83 CALM      30.20R
RALEIGH        CLOUDY    65  58  78 NE3       30.16R

$$

ANZ530>537-191300-
MARINE OBSERVATIONS

STATION/POSITION TIME  TEMP    WIND        PRES
                       AIR SEA DIR/SP/G
                 (UTC) (F)     (DEG/KT/KT) (MB)
THOMAS PT LIGHT  1200   61 73   40/ 14/ 16 1024.5R
BALT KEY BRIDGE  1200   58      20/  9/ 11 1023.8R
COVE POINT       1200   62     100/ 10/ 12 1022.9R
LEWISETTA        1200   69 73   10/  6/  8 1022.2R
SOLOMONS ISLAND  1200      75                N/A
PINEY POINT      1200           60/  5/  6   N/A

$$




USA.gov is the U.S. government's official web portal to all federal, state and local government web resources and services.